This is the latest recevied weather packets stored in our database for station/object K6LCM-13. If no packets are shown the sender has not sent any weather packets the latest 10 day(s).
| Time | Temp. | Humidity | Pressure | Rain* | Wind** | Luminosity | Snow |
|---|---|---|---|---|---|---|---|
| 1777937934 | 16.11° C | 78% | 1014.6 hPa | 0 mm | - | - | - |
| 1777937394 | 16.11° C | 79% | 1014.6 hPa | 0 mm | - | - | - |
| 1777936314 | 16.11° C | 78% | 1014.7 hPa | 0 mm | - | - | - |
| 1777935774 | 16.67° C | 78% | 1014.8 hPa | 0 mm | - | - | - |
| 1777935235 | 16.67° C | 77% | 1014.9 hPa | 0 mm | - | - | - |
| 1777934694 | 16.67° C | 77% | 1014.8 hPa | 0 mm | - | - | - |
| 1777933075 | 17.22° C | 76% | 1015.1 hPa | 0 mm | - | - | - |
| 1777932534 | 17.22° C | 72% | 1015.3 hPa | 0 mm | - | - | - |
| 1777931994 | 17.78° C | 68% | 1015.3 hPa | 0 mm | - | - | - |
| 1777931454 | 17.78° C | 67% | 1015.3 hPa | 0 mm | - | - | - |
| 1777930914 | 17.78° C | 67% | 1015.4 hPa | 0 mm | - | - | - |
| 1777929834 | 17.78° C | 70% | 1015.7 hPa | 0 mm | - | - | - |
| 1777929294 | 17.78° C | 69% | 1015.7 hPa | 0 mm | - | - | - |
| 1777928754 | 17.78° C | 72% | 1015.7 hPa | 0 mm | - | - | - |
| 1777927674 | 17.78° C | 72% | 1015.7 hPa | 0 mm | - | - | - |
| 1777927134 | 17.78° C | 71% | 1015.7 hPa | 0 mm | - | - | - |
| 1777926594 | 17.78° C | 72% | 1015.7 hPa | 0 mm | - | - | - |
| 1777926054 | 17.78° C | 70% | 1015.7 hPa | 0 mm | - | - | - |
| 1777925514 | 17.78° C | 73% | 1015.7 hPa | 0 mm | - | - | - |
| 1777924975 | 17.78° C | 73% | 1015.7 hPa | 0 mm | - | - | - |
| 1777924434 | 17.78° C | 72% | 1015.7 hPa | 0 mm | - | - | - |
| 1777923894 | 17.22° C | 72% | 1015.5 hPa | 0 mm | - | - | - |
| 1777923355 | 17.22° C | 73% | 1015.7 hPa | 0 mm | - | - | - |
| 1777922724 | 17.22° C | 76% | 1015.6 hPa | 0 mm | - | - | - |
| 1777922183 | 16.67° C | 77% | 1015.7 hPa | 0 mm | - | - | - |
* Rain latest hour (hover to see other rain measurements)
** Current wind speed in m/s (hover to see current wind gust speed)